| time (UTC) | temp C | wind direction | speed KPH | gust KPH | rain 1hr cm | rain 24hr cm | rain mn cm | humidity % | barometer mb |
| 20260905184622 | 33 | 225 | 1.6 | 8.0 | 0.05 | 0.05 | 0.05 | 67 | 1014.3 |
| 20260905184056 | 34 | 360 | 1.6 | 8.0 | 0.05 | 0.05 | 0.05 | 60 | 1014.3 |
| 20260905183554 | 35 | 360 | 1.6 | 9.7 | 0.00 | 0.00 | 0.00 | 54 | 1014.0 |
| 20260905183106 | 35 | 360 | 3.2 | 9.7 | 0.00 | 0.00 | 0.00 | 53 | 1013.9 |
| 20260905182553 | 35 | 360 | 4.8 | 9.7 | 0.00 | 0.00 | 0.00 | 54 | 1014.1 |
| 20260905182056 | 35 | 360 | 1.6 | 6.4 | 0.00 | 0.00 | 0.00 | 52 | 1014.1 |
| 20260905181606 | 35 | 0 | 1.6 | 12.9 | 0.00 | 0.00 | 0.00 | 52 | 1014.1 |
| 20260905181054 | 35 | 360 | 1.6 | 12.9 | 0.00 | 0.00 | 0.00 | 52 | 1014.3 |
| 20260905180554 | 35 | 360 | 4.8 | 12.9 | 0.00 | 0.00 | 0.00 | 54 | 1014.4 |
| 20260905180108 | 35 | 360 | 0.0 | 12.9 | 0.00 | 0.00 | 0.00 | 53 | 1014.3 |
| 20260905175553 | 35 | 360 | 0.0 | 14.5 | 0.00 | 0.00 | 0.00 | 53 | 1014.3 |
| 20260905175054 | 35 | 360 | 6.4 | 14.5 | 0.00 | 0.00 | 0.00 | 53 | 1014.5 |
| 20260905174604 | 35 | 360 | 4.8 | 12.9 | 0.00 | 0.00 | 0.00 | 53 | 1014.6 |
| 20260905174052 | 35 | 360 | 3.2 | 9.7 | 0.00 | 0.00 | 0.00 | 55 | 1014.7 |
| 20260905173556 | 35 | 360 | 4.8 | 12.9 | 0.00 | 0.00 | 0.00 | 55 | 1014.7 |
| 20260905173109 | 34 | 360 | 3.2 | 16.1 | 0.00 | 0.00 | 0.00 | 54 | 1014.9 |
| 20260905172556 | 34 | 360 | 4.8 | 16.1 | 0.00 | 0.00 | 0.00 | 55 | 1014.9 |
| 20260905172053 | 33 | 360 | 0.0 | 8.0 | 0.00 | 0.00 | 0.00 | 57 | 1015.0 |
| 20260905171603 | 33 | 0 | 3.2 | 8.0 | 0.00 | 0.00 | 0.00 | 57 | 1014.9 |
| 20260905171050 | 33 | 360 | 1.6 | 8.0 | 0.00 | 0.00 | 0.00 | 59 | 1014.9 |
| 20260905170553 | 33 | 360 | 3.2 | 8.0 | 0.00 | 0.00 | 0.00 | 60 | 1015.0 |
| 20260905170120 | 33 | 360 | 0.0 | 12.9 | 0.00 | 0.00 | 0.00 | 62 | 1015.1 |
| 20260905165548 | 33 | 360 | 3.2 | 12.9 | 0.00 | 0.00 | 0.00 | 62 | 1015.0 |
| 20260905165055 | 33 | 360 | 0.0 | 12.9 | 0.00 | 0.00 | 0.00 | 63 | 1015.2 |
| 20260905164602 | 33 | 0 | 3.2 | 12.9 | 0.00 | 0.00 | 0.00 | 63 | 1015.3 |
| 20260905164051 | 32 | 360 | 3.2 | 12.9 | 0.00 | 0.00 | 0.00 | 64 | 1015.4 |
| 20260905163551 | 32 | 360 | 1.6 | 12.9 | 0.00 | 0.00 | 0.00 | 64 | 1015.5 |
| 20260905163106 | 32 | 360 | 6.4 | 12.9 | 0.00 | 0.00 | 0.00 | 65 | 1015.5 |
| 20260905162550 | 32 | 360 | 1.6 | 8.0 | 0.00 | 0.00 | 0.00 | 66 | 1015.4 |
| 20260905162051 | 32 | 0 | 1.6 | 8.0 | 0.00 | 0.00 | 0.00 | 66 | 1015.5 |
| 20260905161601 | 32 | 360 | 1.6 | 8.0 | 0.00 | 0.00 | 0.00 | 67 | 1015.6 |
| 20260905161052 | 32 | 0 | 0.0 | 6.4 | 0.00 | 0.00 | 0.00 | 68 | 1015.6 |
| 20260905160551 | 32 | 0 | 0.0 | 8.0 | 0.00 | 0.00 | 0.00 | 67 | 1015.7 |
| 20260905160112 | 32 | 360 | 1.6 | 8.0 | 0.00 | 0.00 | 0.00 | 67 | 1015.8 |
| 20260905155552 | 32 | 360 | 3.2 | 8.0 | 0.00 | 0.00 | 0.00 | 69 | 1015.8 |
| 20260905155054 | 31 | 0 | 0.0 | 8.0 | 0.00 | 0.00 | 0.00 | 68 | 1015.8 |
| 20260905154606 | 31 | 360 | 3.2 | 8.0 | 0.00 | 0.00 | 0.00 | 69 | 1016.0 |
| 20260905154052 | 31 | 0 | 3.2 | 8.0 | 0.00 | 0.00 | 0.00 | 69 | 1016.1 |
| 20260905153552 | 31 | 360 | 1.6 | 6.4 | 0.00 | 0.00 | 0.00 | 69 | 1016.1 |
| 20260905153104 | 31 | 0 | 1.6 | 6.4 | 0.00 | 0.00 | 0.00 | 69 | 1015.9 |
| 20260905152552 | 31 | 0 | 1.6 | 6.4 | 0.00 | 0.00 | 0.00 | 69 | 1016.1 |
| 20260905152051 | 31 | 360 | 1.6 | 6.4 | 0.00 | 0.00 | 0.00 | 69 | 1016.1 |
| 20260905151605 | 31 | 0 | 0.0 | 6.4 | 0.00 | 0.00 | 0.00 | 70 | 1016.1 |
| 20260905151052 | 31 | 360 | 1.6 | 6.4 | 0.00 | 0.00 | 0.00 | 70 | 1016.1 |
| 20260905150551 | 31 | 360 | 0.0 | 4.8 | 0.00 | 0.00 | 0.00 | 70 | 1016.1 |
| 20260905150108 | 30 | 0 | 1.6 | 4.8 | 0.00 | 0.00 | 0.00 | 70 | 1016.1 |
| 20260905145551 | 30 | 0 | 0.0 | 4.8 | 0.00 | 0.00 | 0.00 | 73 | 1016.2 |
| 20260905145051 | 30 | 0 | 0.0 | 4.8 | 0.00 | 0.00 | 0.00 | 74 | 1016.4 |
| 20260905144604 | 29 | 360 | 1.6 | 4.8 | 0.00 | 0.00 | 0.00 | 75 | 1016.4 |
| 20260905144052 | 29 | 0 | 0.0 | 1.6 | 0.00 | 0.00 | 0.00 | 76 | 1016.3 |
| 20260905143552 | 29 | 0 | 0.0 | 3.2 | 0.00 | 0.00 | 0.00 | 76 | 1016.4 |
| 20260905143100 | 29 | 0 | 0.0 | 3.2 | 0.00 | 0.00 | 0.00 | 76 | 1016.4 |
| 20260905142554 | 28 | 0 | 0.0 | 3.2 | 0.00 | 0.00 | 0.00 | 76 | 1016.4 |
| 20260905142053 | 28 | 360 | 0.0 | 1.6 | 0.00 | 0.00 | 0.00 | 77 | 1016.4 |
| 20260905141629 | 29 | 0 | 0.0 | 3.2 | 0.00 | 0.00 | 0.00 | 77 | 1016.6 |
| 20260905141053 | 29 | 0 | 0.0 | 3.2 | 0.00 | 0.00 | 0.00 | 77 | 1016.5 |
| 20260905140555 | 29 | 360 | 0.0 | 4.8 | 0.00 | 0.00 | 0.00 | 77 | 1016.5 |
| 20260905140109 | 28 | 0 | 0.0 | 4.8 | 0.00 | 0.00 | 0.00 | 78 | 1016.5 |
| 20260905135556 | 28 | 360 | 0.0 | 4.8 | 0.00 | 0.00 | 0.00 | 79 | 1016.5 |
| 20260905135055 | 28 | 360 | 1.6 | 4.8 | 0.00 | 0.00 | 0.00 | 80 | 1016.6 |
| 20260905134605 | 27 | 0 | 0.0 | 4.8 | 0.00 | 0.00 | 0.00 | 81 | 1016.5 |
| 20260905134053 | 27 | 0 | 0.0 | 4.8 | 0.00 | 0.00 | 0.00 | 83 | 1016.5 |
| 20260905133553 | 27 | 0 | 1.6 | 4.8 | 0.00 | 0.00 | 0.00 | 83 | 1016.6 |
| 20260905133104 | 26 | 360 | 1.6 | 4.8 | 0.00 | 0.00 | 0.00 | 84 | 1016.8 |
| 20260905132553 | 26 | 0 | 0.0 | 3.2 | 0.00 | 0.00 | 0.00 | 85 | 1016.8 |
| 20260905132053 | 26 | 0 | 1.6 | 3.2 | 0.00 | 0.00 | 0.00 | 85 | 1016.8 |
| 20260905131631 | 26 | 360 | 0.0 | 1.6 | 0.00 | 0.00 | 0.00 | 87 | 1016.8 |
| 20260905131054 | 26 | 0 | 0.0 | 0.0 | 0.00 | 0.00 | 0.00 | 87 | 1016.8 |
| 20260905130554 | 25 | 0 | 0.0 | 0.0 | 0.00 | 0.00 | 0.00 | 88 | 1016.9 |
| 20260905130120 | 25 | 0 | 0.0 | 0.0 | 0.00 | 0.00 | 0.00 | 88 | 1016.8 |
| 20260905125553 | 25 | 0 | 0.0 | 0.0 | 0.00 | 0.00 | 0.00 | 89 | 1016.8 |
| 20260905125053 | 25 | 0 | 0.0 | 0.0 | 0.00 | 0.00 | 0.00 | 89 | 1016.8 |
| 20260905124600 | 25 | 0 | 0.0 | 0.0 | 0.00 | 0.00 | 0.00 | 90 | 1016.6 |
| 20260905124053 | 24 | 0 | 0.0 | 0.0 | 0.00 | 0.00 | 0.00 | 90 | 1016.8 |
| 20260905123553 | 24 | 0 | 0.0 | 0.0 | 0.00 | 0.00 | 0.00 | 91 | 1016.8 |
| 20260905123111 | 24 | 0 | 0.0 | 0.0 | 0.00 | 0.00 | 0.00 | 91 | 1016.8 |
| 20260905122553 | 24 | 0 | 0.0 | 0.0 | 0.00 | 0.00 | 0.00 | 91 | 1016.7 |
| 20260905122052 | 23 | 0 | 0.0 | 0.0 | 0.00 | 0.00 | 0.00 | 91 | 1016.7 |
| 20260905121601 | 23 | 0 | 0.0 | 0.0 | 0.00 | 0.00 | 0.00 | 91 | 1016.7 |
| 20260905121056 | 23 | 0 | 0.0 | 0.0 | 0.00 | 0.00 | 0.00 | 91 | 1016.7 |
| 20260905120554 | 23 | 0 | 0.0 | 0.0 | 0.00 | 0.00 | 0.00 | 91 | 1016.8 |
| 20260905120105 | 23 | 0 | 0.0 | 0.0 | 0.00 | 0.00 | 0.00 | 91 | 1016.7 |
| 20260905115554 | 23 | 0 | 0.0 | 0.0 | 0.00 | 0.00 | 0.00 | 91 | 1016.5 |
| 20260905115053 | 23 | 0 | 0.0 | 0.0 | 0.00 | 0.00 | 0.00 | 90 | 1016.4 |
| 20260905114600 | 23 | 0 | 0.0 | 0.0 | 0.00 | 0.00 | 0.00 | 90 | 1016.5 |
| 20260905114053 | 23 | 0 | 0.0 | 0.0 | 0.00 | 0.00 | 0.00 | 90 | 1016.2 |
| 20260905113553 | 23 | 0 | 0.0 | 0.0 | 0.00 | 0.00 | 0.00 | 90 | 1016.2 |
| 20260905113112 | 23 | 0 | 0.0 | 0.0 | 0.00 | 0.00 | 0.00 | 90 | 1016.2 |
| 20260905112554 | 23 | 0 | 0.0 | 0.0 | 0.00 | 0.00 | 0.00 | 90 | 1016.1 |
| 20260905112056 | 23 | 0 | 0.0 | 0.0 | 0.00 | 0.00 | 0.00 | 90 | 1016.0 |
| 20260905111559 | 23 | 0 | 0.0 | 0.0 | 0.00 | 0.00 | 0.00 | 90 | 1015.8 |
| 20260905111052 | 23 | 0 | 0.0 | 0.0 | 0.00 | 0.00 | 0.00 | 90 | 1015.8 |
| 20260905110551 | 23 | 0 | 0.0 | 0.0 | 0.00 | 0.00 | 0.00 | 89 | 1015.7 |
| 20260905110057 | 23 | 0 | 0.0 | 0.0 | 0.00 | 0.00 | 0.00 | 90 | 1015.7 |
| 20260905105551 | 23 | 0 | 0.0 | 0.0 | 0.00 | 0.00 | 0.00 | 90 | 1015.6 |
| 20260905105051 | 23 | 0 | 0.0 | 0.0 | 0.00 | 0.00 | 0.00 | 89 | 1015.6 |
| 20260905104559 | 23 | 0 | 0.0 | 0.0 | 0.00 | 0.00 | 0.00 | 90 | 1015.6 |
| 20260905104052 | 23 | 0 | 0.0 | 0.0 | 0.00 | 0.00 | 0.00 | 90 | 1015.5 |
| 20260905103551 | 23 | 0 | 0.0 | 0.0 | 0.00 | 0.00 | 0.00 | 90 | 1015.5 |
| 20260905103102 | 23 | 0 | 0.0 | 0.0 | 0.00 | 0.00 | 0.00 | 90 | 1015.5 |
| 20260905102551 | 23 | 0 | 0.0 | 0.0 | 0.00 | 0.00 | 0.00 | 89 | 1015.5 |
| 20260905102051 | 23 | 0 | 0.0 | 3.2 | 0.00 | 0.00 | 0.00 | 89 | 1015.5 |
| 20260905101631 | 23 | 0 | 0.0 | 3.2 | 0.00 | 0.00 | 0.00 | 89 | 1015.5 |
| 20260905101054 | 24 | 360 | 0.0 | 1.6 | 0.00 | 0.00 | 0.00 | 89 | 1015.5 |
| 20260905100551 | 24 | 0 | 0.0 | 1.6 | 0.00 | 0.00 | 0.00 | 89 | 1015.6 |
| 20260905095551 | 24 | 0 | 0.0 | 0.0 | 0.00 | 0.00 | 0.00 | 89 | 1015.4 |
| 20260905095051 | 24 | 0 | 0.0 | 0.0 | 0.00 | 0.00 | 0.00 | 89 | 1015.5 |
| 20260905094603 | 24 | 0 | 0.0 | 0.0 | 0.00 | 0.00 | 0.00 | 89 | 1015.4 |
| 20260905094050 | 24 | 0 | 0.0 | 1.6 | 0.00 | 0.00 | 0.00 | 89 | 1015.2 |
| 20260905093549 | 24 | 0 | 0.0 | 1.6 | 0.00 | 0.00 | 0.00 | 88 | 1015.2 |
| 20260905093102 | 24 | 0 | 0.0 | 1.6 | 0.00 | 0.00 | 0.00 | 88 | 1015.2 |
| 20260905092553 | 24 | 0 | 0.0 | 0.0 | 0.00 | 0.00 | 0.00 | 88 | 1015.2 |
| 20260905092051 | 24 | 0 | 0.0 | 0.0 | 0.00 | 0.00 | 0.00 | 88 | 1015.2 |
| 20260905091629 | 24 | 0 | 0.0 | 0.0 | 0.00 | 0.00 | 0.00 | 88 | 1015.2 |
| 20260905091049 | 24 | 0 | 0.0 | 1.6 | 0.00 | 0.00 | 0.00 | 88 | 1015.0 |
| 20260905090552 | 24 | 0 | 0.0 | 3.2 | 0.00 | 0.00 | 0.00 | 88 | 1015.2 |
| 20260905090100 | 24 | 0 | 0.0 | 3.2 | 0.00 | 0.00 | 0.00 | 88 | 1015.3 |
| 20260905085549 | 24 | 0 | 0.0 | 3.2 | 0.00 | 0.00 | 0.00 | 88 | 1015.3 |
| 20260905085051 | 24 | 0 | 0.0 | 3.2 | 0.00 | 0.00 | 0.00 | 88 | 1015.3 |
| 20260905084616 | 24 | 360 | 0.0 | 3.2 | 0.00 | 0.00 | 0.00 | 87 | 1015.2 |
| 20260905084048 | 24 | 0 | 0.0 | 1.6 | 0.00 | 0.00 | 0.00 | 88 | 1015.2 |
| 20260905083552 | 24 | 0 | 0.0 | 1.6 | 0.00 | 0.00 | 0.00 | 88 | 1015.2 |
| 20260905083054 | 25 | 0 | 0.0 | 1.6 | 0.00 | 0.00 | 0.00 | 87 | 1015.2 |
| 20260905082551 | 25 | 0 | 0.0 | 0.0 | 0.00 | 0.00 | 0.00 | 87 | 1015.1 |
| 20260905082051 | 25 | 0 | 0.0 | 0.0 | 0.00 | 0.00 | 0.00 | 87 | 1015.2 |
| 20260905081602 | 25 | 0 | 0.0 | 0.0 | 0.00 | 0.00 | 0.00 | 87 | 1015.2 |
| 20260905081053 | 25 | 0 | 0.0 | 0.0 | 0.00 | 0.00 | 0.00 | 86 | 1015.2 |
| 20260905080554 | 25 | 0 | 0.0 | 0.0 | 0.00 | 0.00 | 0.00 | 86 | 1015.0 |
| 20260905080106 | 25 | 0 | 0.0 | 1.6 | 0.00 | 0.00 | 0.00 | 85 | 1015.0 |
| 20260905075557 | 25 | 0 | 0.0 | 1.6 | 0.00 | 0.00 | 0.00 | 85 | 1014.9 |
| 20260905075052 | 25 | 0 | 0.0 | 0.0 | 0.00 | 0.00 | 0.00 | 85 | 1015.0 |
| 20260905074600 | 25 | 0 | 0.0 | 0.0 | 0.00 | 0.00 | 0.00 | 84 | 1015.1 |
| 20260905074052 | 25 | 0 | 0.0 | 3.2 | 0.00 | 0.00 | 0.00 | 85 | 1015.0 |
| 20260905073552 | 25 | 0 | 0.0 | 3.2 | 0.00 | 0.00 | 0.00 | 84 | 1014.9 |
| 20260905073104 | 25 | 0 | 1.6 | 3.2 | 0.00 | 0.00 | 0.00 | 84 | 1014.9 |
| 20260905072556 | 25 | 360 | 0.0 | 3.2 | 0.00 | 0.00 | 0.00 | 84 | 1015.0 |
| 20260905072056 | 25 | 0 | 0.0 | 0.0 | 0.00 | 0.00 | 0.00 | 84 | 1015.0 |
| 20260905071603 | 25 | 0 | 0.0 | 0.0 | 0.00 | 0.00 | 0.00 | 84 | 1015.0 |
| 20260905071053 | 26 | 0 | 0.0 | 0.0 | 0.00 | 0.00 | 0.00 | 84 | 1015.0 |
| 20260905070553 | 26 | 0 | 0.0 | 0.0 | 0.00 | 0.00 | 0.00 | 84 | 1015.0 |
| 20260905070118 | 26 | 0 | 0.0 | 0.0 | 0.00 | 0.00 | 0.00 | 84 | 1015.1 |
| 20260905065552 | 26 | 0 | 0.0 | 0.0 | 0.00 | 0.00 | 0.00 | 84 | 1015.1 |
| 20260905065053 | 26 | 0 | 0.0 | 0.0 | 0.00 | 0.00 | 0.00 | 84 | 1015.3 |
| 20260905064601 | 26 | 0 | 0.0 | 0.0 | 0.00 | 0.00 | 0.00 | 84 | 1015.3 |
| 20260905064053 | 26 | 0 | 0.0 | 0.0 | 0.00 | 0.00 | 0.00 | 84 | 1015.3 |
| 20260905063552 | 26 | 0 | 0.0 | 0.0 | 0.00 | 0.00 | 0.00 | 84 | 1015.3 |
| 20260905063102 | 26 | 0 | 0.0 | 0.0 | 0.00 | 0.00 | 0.00 | 84 | 1015.2 |
| 20260905062552 | 26 | 0 | 0.0 | 0.0 | 0.00 | 0.00 | 0.00 | 84 | 1015.2 |
| 20260905062053 | 26 | 0 | 0.0 | 0.0 | 0.00 | 0.00 | 0.00 | 83 | 1015.2 |
| 20260905061618 | 26 | 0 | 0.0 | 0.0 | 0.00 | 0.00 | 0.00 | 83 | 1015.3 |
| 20260905061054 | 26 | 0 | 0.0 | 0.0 | 0.00 | 0.00 | 0.00 | 83 | 1015.2 |
| 20260905060553 | 26 | 0 | 0.0 | 0.0 | 0.00 | 0.00 | 0.00 | 83 | 1015.2 |
| 20260905060109 | 26 | 0 | 0.0 | 0.0 | 0.00 | 0.00 | 0.00 | 83 | 1015.4 |
| 20260905055554 | 26 | 0 | 0.0 | 1.6 | 0.00 | 0.00 | 0.00 | 82 | 1015.4 |
| 20260905055053 | 26 | 0 | 0.0 | 1.6 | 0.00 | 0.00 | 0.00 | 82 | 1015.4 |
| 20260905054603 | 26 | 0 | 0.0 | 3.2 | 0.00 | 0.00 | 0.00 | 82 | 1015.5 |
| 20260905054052 | 26 | 0 | 0.0 | 3.2 | 0.00 | 0.00 | 0.00 | 82 | 1015.6 |
| 20260905053553 | 26 | 0 | 0.0 | 0.0 | 0.00 | 0.00 | 0.00 | 82 | 1015.4 |
| 20260905053114 | 26 | 0 | 0.0 | 0.0 | 0.00 | 0.00 | 0.00 | 82 | 1015.5 |
| 20260905052555 | 26 | 0 | 0.0 | 0.0 | 0.00 | 0.00 | 0.00 | 82 | 1015.5 |
| 20260905052056 | 26 | 0 | 0.0 | 0.0 | 0.00 | 0.00 | 0.00 | 82 | 1015.4 |
| 20260905051559 | 26 | 0 | 0.0 | 0.0 | 0.00 | 0.00 | 0.00 | 82 | 1015.5 |
| 20260905051117 | 26 | 0 | 0.0 | 0.0 | 0.00 | 0.00 | 0.00 | 82 | 1015.5 |
| 20260905050553 | 26 | 0 | 0.0 | 0.0 | 0.00 | 0.00 | 0.00 | 82 | 1015.4 |
| 20260905050108 | 26 | 0 | 0.0 | 0.0 | 0.00 | 0.00 | 0.00 | 81 | 1015.3 |
| 20260905045551 | 26 | 0 | 0.0 | 0.0 | 0.00 | 0.00 | 0.00 | 81 | 1015.5 |
| 20260905045054 | 27 | 0 | 0.0 | 1.6 | 0.00 | 0.00 | 0.00 | 81 | 1015.5 |
| 20260905044603 | 27 | 0 | 0.0 | 1.6 | 0.00 | 0.00 | 0.00 | 81 | 1015.6 |
| 20260905044052 | 27 | 0 | 0.0 | 1.6 | 0.00 | 0.00 | 0.00 | 80 | 1015.6 |
| 20260905043552 | 27 | 0 | 0.0 | 1.6 | 0.00 | 0.00 | 0.00 | 79 | 1015.7 |
| 20260905043106 | 27 | 0 | 0.0 | 1.6 | 0.00 | 0.00 | 0.00 | 80 | 1015.7 |
| 20260905042556 | 27 | 0 | 0.0 | 0.0 | 0.00 | 0.00 | 0.00 | 79 | 1015.7 |
| 20260905042052 | 27 | 0 | 0.0 | 0.0 | 0.00 | 0.00 | 0.00 | 78 | 1015.7 |
| 20260905041603 | 27 | 0 | 0.0 | 0.0 | 0.00 | 0.00 | 0.00 | 78 | 1015.7 |
| 20260905041052 | 27 | 0 | 0.0 | 0.0 | 0.00 | 0.00 | 0.00 | 77 | 1015.8 |
| 20260905040554 | 27 | 0 | 0.0 | 0.0 | 0.00 | 0.00 | 0.00 | 77 | 1015.7 |
| 20260905035553 | 27 | 0 | 0.0 | 0.0 | 0.00 | 0.00 | 0.00 | 76 | 1015.9 |
| 20260905035053 | 27 | 0 | 0.0 | 0.0 | 0.00 | 0.00 | 0.00 | 75 | 1016.1 |
| 20260905034601 | 27 | 0 | 0.0 | 1.6 | 0.00 | 0.00 | 0.00 | 75 | 1016.1 |
| 20260905034054 | 27 | 0 | 0.0 | 1.6 | 0.00 | 0.00 | 0.00 | 76 | 1016.2 |
| 20260905033552 | 28 | 0 | 0.0 | 3.2 | 0.00 | 0.00 | 0.00 | 75 | 1016.3 |
| 20260905033104 | 28 | 0 | 0.0 | 4.8 | 0.00 | 0.00 | 0.00 | 75 | 1016.4 |
| 20260905032552 | 28 | 0 | 1.6 | 4.8 | 0.00 | 0.00 | 0.00 | 75 | 1016.5 |
| 20260905032054 | 28 | 360 | 0.0 | 1.6 | 0.00 | 0.00 | 0.00 | 74 | 1016.4 |
| 20260905031603 | 28 | 0 | 0.0 | 1.6 | 0.00 | 0.00 | 0.00 | 75 | 1016.4 |
| 20260905031054 | 28 | 0 | 0.0 | 1.6 | 0.00 | 0.00 | 0.00 | 75 | 1016.4 |
| 20260905030553 | 28 | 0 | 0.0 | 1.6 | 0.00 | 0.00 | 0.00 | 74 | 1016.4 |
| 20260905030107 | 28 | 0 | 0.0 | 1.6 | 0.00 | 0.00 | 0.00 | 74 | 1016.4 |
| 20260905025552 | 28 | 0 | 0.0 | 0.0 | 0.00 | 0.00 | 0.00 | 73 | 1016.4 |
| 20260905025053 | 28 | 0 | 0.0 | 0.0 | 0.00 | 0.00 | 0.00 | 72 | 1016.4 |
| 20260905024640 | 28 | 0 | 0.0 | 0.0 | 0.00 | 0.00 | 0.00 | 71 | 1016.5 |
| 20260905024057 | 28 | 0 | 0.0 | 3.2 | 0.00 | 0.00 | 0.00 | 72 | 1016.6 |
| 20260905023554 | 28 | 0 | 0.0 | 3.2 | 0.00 | 0.00 | 0.00 | 72 | 1016.6 |
| 20260905023105 | 28 | 0 | 0.0 | 3.2 | 0.00 | 0.00 | 0.00 | 71 | 1016.5 |
| 20260905022552 | 28 | 0 | 0.0 | 0.0 | 0.00 | 0.00 | 0.00 | 72 | 1016.4 |
| 20260905022052 | 28 | 0 | 0.0 | 1.6 | 0.00 | 0.00 | 0.00 | 73 | 1016.4 |
| 20260905021603 | 28 | 0 | 0.0 | 1.6 | 0.00 | 0.00 | 0.00 | 72 | 1016.5 |
| 20260905021052 | 28 | 0 | 0.0 | 1.6 | 0.00 | 0.00 | 0.00 | 73 | 1016.4 |
| 20260905020554 | 29 | 0 | 0.0 | 1.6 | 0.00 | 0.00 | 0.00 | 73 | 1016.5 |
| 20260905015553 | 29 | 0 | 0.0 | 1.6 | 0.00 | 0.00 | 0.00 | 71 | 1016.4 |
| 20260905015055 | 29 | 0 | 0.0 | 1.6 | 0.00 | 0.00 | 0.00 | 72 | 1016.4 |
| 20260905014603 | 29 | 0 | 0.0 | 1.6 | 0.00 | 0.00 | 0.00 | 72 | 1016.3 |
| 20260905014052 | 29 | 0 | 0.0 | 0.0 | 0.00 | 0.00 | 0.00 | 73 | 1016.3 |
| 20260905013553 | 29 | 0 | 0.0 | 0.0 | 0.00 | 0.00 | 0.00 | 72 | 1016.4 |
| 20260905013113 | 29 | 0 | 0.0 | 0.0 | 0.00 | 0.00 | 0.00 | 72 | 1016.2 |
| 20260905012553 | 30 | 0 | 0.0 | 0.0 | 0.00 | 0.00 | 0.00 | 72 | 1016.3 |
| 20260905012054 | 30 | 0 | 0.0 | 3.2 | 0.00 | 0.00 | 0.00 | 71 | 1016.3 |
| 20260905011601 | 30 | 0 | 0.0 | 3.2 | 0.00 | 0.00 | 0.00 | 71 | 1016.3 |
| 20260905011053 | 30 | 0 | 0.0 | 3.2 | 0.00 | 0.00 | 0.00 | 71 | 1016.1 |
| 20260905010553 | 30 | 360 | 0.0 | 3.2 | 0.00 | 0.00 | 0.00 | 70 | 1016.1 |
| 20260905010108 | 30 | 0 | 0.0 | 1.6 | 0.00 | 0.00 | 0.00 | 70 | 1016.1 |
| 20260905005552 | 30 | 0 | 0.0 | 1.6 | 0.00 | 0.00 | 0.00 | 70 | 1016.2 |
| 20260905005053 | 30 | 0 | 0.0 | 0.0 | 0.00 | 0.00 | 0.00 | 71 | 1016.2 |
| 20260905004603 | 30 | 0 | 0.0 | 0.0 | 0.00 | 0.00 | 0.00 | 72 | 1016.2 |
| 20260905004055 | 30 | 0 | 0.0 | 0.0 | 0.00 | 0.00 | 0.00 | 71 | 1015.8 |
| 20260905003552 | 30 | 0 | 0.0 | 0.0 | 0.00 | 0.00 | 0.00 | 70 | 1015.8 |
| 20260905003104 | 31 | 0 | 0.0 | 0.0 | 0.00 | 0.00 | 0.00 | 69 | 1015.6 |
| 20260905002554 | 31 | 0 | 0.0 | 0.0 | 0.00 | 0.00 | 0.00 | 69 | 1015.6 |
| 20260905002054 | 31 | 0 | 0.0 | 0.0 | 0.00 | 0.00 | 0.00 | 68 | 1015.8 |
| 20260905001607 | 31 | 0 | 0.0 | 3.2 | 0.00 | 0.00 | 0.00 | 68 | 1015.7 |
| 20260905001052 | 31 | 0 | 0.0 | 3.2 | 0.00 | 0.00 | 0.00 | 68 | 1015.8 |
| 20260905000553 | 31 | 360 | 0.0 | 3.2 | 0.00 | 0.00 | 0.00 | 68 | 1015.7 |
| 20260905000108 | 31 | 0 | 0.0 | 0.0 | 0.00 | 0.00 | 0.00 | 67 | 1015.7 |
| 20260904235553 | 32 | 0 | 0.0 | 0.0 | 0.00 | 0.00 | 0.00 | 65 | 1015.7 |
| 20260904235052 | 32 | 0 | 0.0 | 0.0 | 0.00 | 0.00 | 0.00 | 65 | 1015.7 |
| 20260904234605 | 32 | 0 | 0.0 | 0.0 | 0.00 | 0.00 | 0.00 | 64 | 1015.7 |
| 20260904234052 | 32 | 0 | 0.0 | 1.6 | 0.00 | 0.00 | 0.00 | 64 | 1015.7 |
| 20260904233552 | 32 | 0 | 0.0 | 1.6 | 0.00 | 0.00 | 0.00 | 62 | 1015.6 |
| 20260904233105 | 33 | 0 | 0.0 | 1.6 | 0.00 | 0.00 | 0.00 | 62 | 1015.5 |
| 20260904232552 | 33 | 0 | 0.0 | 3.2 | 0.00 | 0.00 | 0.00 | 61 | 1015.4 |
| 20260904232052 | 33 | 0 | 0.0 | 3.2 | 0.00 | 0.00 | 0.00 | 60 | 1015.3 |
| 20260904231601 | 33 | 0 | 0.0 | 3.2 | 0.00 | 0.00 | 0.00 | 59 | 1015.4 |
| 20260904231057 | 33 | 0 | 0.0 | 3.2 | 0.00 | 0.00 | 0.00 | 58 | 1015.3 |
| 20260904230550 | 33 | 360 | 0.0 | 6.4 | 0.00 | 0.00 | 0.00 | 58 | 1015.3 |
| 20260904230101 | 33 | 0 | 1.6 | 6.4 | 0.00 | 0.00 | 0.00 | 58 | 1015.3 |
| 20260904225552 | 33 | 0 | 0.0 | 3.2 | 0.00 | 0.00 | 0.00 | 56 | 1015.3 |
| 20260904225052 | 34 | 0 | 0.0 | 3.2 | 0.00 | 0.00 | 0.00 | 56 | 1015.3 |
| 20260904224559 | 34 | 0 | 0.0 | 8.0 | 0.00 | 0.00 | 0.00 | 55 | 1015.3 |
| 20260904224052 | 34 | 0 | 0.0 | 8.0 | 0.00 | 0.00 | 0.00 | 55 | 1015.2 |
| 20260904223552 | 34 | 0 | 1.6 | 8.0 | 0.00 | 0.00 | 0.00 | 55 | 1015.2 |
| 20260904223109 | 34 | 0 | 0.0 | 4.8 | 0.00 | 0.00 | 0.00 | 54 | 1015.1 |
| 20260904222554 | 34 | 360 | 0.0 | 4.8 | 0.00 | 0.00 | 0.00 | 52 | 1015.2 |
| 20260904222053 | 35 | 360 | 1.6 | 9.7 | 0.00 | 0.00 | 0.00 | 51 | 1015.0 |
| 20260904221610 | 35 | 360 | 1.6 | 9.7 | 0.00 | 0.00 | 0.00 | 51 | 1015.0 |
| 20260904221053 | 35 | 360 | 3.2 | 9.7 | 0.00 | 0.00 | 0.00 | 51 | 1015.0 |
| 20260904220552 | 35 | 0 | 3.2 | 8.0 | 0.00 | 0.00 | 0.00 | 50 | 1014.8 |
| 20260904220106 | 35 | 0 | 1.6 | 8.0 | 0.00 | 0.00 | 0.00 | 50 | 1014.9 |
| 20260904215552 | 35 | 0 | 3.2 | 8.0 | 0.00 | 0.00 | 0.00 | 49 | 1014.7 |
| 20260904215053 | 35 | 360 | 3.2 | 8.0 | 0.00 | 0.00 | 0.00 | 49 | 1014.7 |
| 20260904214608 | 35 | 360 | 3.2 | 9.7 | 0.00 | 0.00 | 0.00 | 49 | 1014.9 |
| 20260904214054 | 35 | 360 | 1.6 | 14.5 | 0.00 | 0.00 | 0.00 | 49 | 1015.0 |
| 20260904213552 | 35 | 360 | 6.4 | 14.5 | 0.00 | 0.00 | 0.00 | 47 | 1015.1 |
| 20260904213103 | 36 | 360 | 8.0 | 14.5 | 0.00 | 0.00 | 0.00 | 48 | 1015.1 |
| 20260904212552 | 35 | 360 | 0.0 | 4.8 | 0.00 | 0.00 | 0.00 | 49 | 1015.1 |
| 20260904212053 | 35 | 360 | 1.6 | 12.9 | 0.00 | 0.00 | 0.00 | 50 | 1015.2 |
| 20260904211619 | 35 | 0 | 1.6 | 14.5 | 0.00 | 0.00 | 0.00 | 50 | 1015.2 |
| 20260904211053 | 35 | 0 | 4.8 | 14.5 | 0.00 | 0.00 | 0.00 | 50 | 1015.3 |
| 20260904210555 | 35 | 360 | 4.8 | 14.5 | 0.00 | 0.00 | 0.00 | 49 | 1015.3 |
| 20260904205553 | 35 | 360 | 3.2 | 8.0 | 0.00 | 0.00 | 0.00 | 49 | 1015.4 |
| 20260904205053 | 35 | 360 | 1.6 | 14.5 | 0.00 | 0.00 | 0.00 | 49 | 1015.4 |
| 20260904204602 | 35 | 360 | 4.8 | 14.5 | 0.00 | 0.00 | 0.00 | 49 | 1015.5 |
| 20260904204054 | 35 | 360 | 6.4 | 14.5 | 0.00 | 0.00 | 0.00 | 49 | 1015.6 |
| 20260904203552 | 35 | 360 | 3.2 | 14.5 | 0.00 | 0.00 | 0.00 | 50 | 1015.6 |
| 20260904203103 | 35 | 360 | 4.8 | 14.5 | 0.00 | 0.00 | 0.00 | 49 | 1015.6 |
| 20260904202552 | 35 | 360 | 1.6 | 8.0 | 0.00 | 0.00 | 0.00 | 51 | 1015.6 |
| 20260904202052 | 35 | 360 | 3.2 | 8.0 | 0.00 | 0.00 | 0.00 | 50 | 1016.0 |
| 20260904201604 | 35 | 360 | 0.0 | 9.7 | 0.00 | 0.00 | 0.00 | 50 | 1016.0 |
| 20260904201052 | 35 | 360 | 3.2 | 9.7 | 0.00 | 0.00 | 0.00 | 51 | 1016.1 |
| 20260904200552 | 35 | 360 | 3.2 | 20.9 | 0.00 | 0.00 | 0.00 | 51 | 1016.0 |
| 20260904200106 | 35 | 360 | 9.7 | 20.9 | 0.00 | 0.00 | 0.00 | 51 | 1016.0 |
| 20260904195553 | 35 | 360 | 1.6 | 9.7 | 0.00 | 0.00 | 0.00 | 51 | 1016.1 |
| 20260904195052 | 35 | 360 | 4.8 | 9.7 | 0.00 | 0.00 | 0.00 | 50 | 1016.3 |
| 20260904194604 | 35 | 360 | 1.6 | 9.7 | 0.00 | 0.00 | 0.00 | 51 | 1016.4 |
| 20260904194050 | 35 | 360 | 3.2 | 9.7 | 0.00 | 0.00 | 0.00 | 51 | 1016.4 |
| 20260904193553 | 35 | 360 | 0.0 | 6.4 | 0.00 | 0.00 | 0.00 | 54 | 1016.3 |
| 20260904193102 | 35 | 0 | 0.0 | 8.0 | 0.00 | 0.00 | 0.00 | 53 | 1016.6 |
| 20260904192551 | 35 | 360 | 1.6 | 8.0 | 0.00 | 0.00 | 0.00 | 54 | 1016.5 |
| 20260904192051 | 35 | 360 | 3.2 | 8.0 | 0.00 | 0.00 | 0.00 | 52 | 1016.7 |
| 20260904191602 | 35 | 360 | 0.0 | 4.8 | 0.00 | 0.00 | 0.00 | 54 | 1016.8 |
| 20260904191051 | 35 | 0 | 0.0 | 8.0 | 0.00 | 0.00 | 0.00 | 54 | 1016.9 |
| 20260904190551 | 35 | 360 | 1.6 | 8.0 | 0.00 | 0.00 | 0.00 | 54 | 1016.9 |
| 20260904190104 | 35 | 360 | 1.6 | 8.0 | 0.00 | 0.00 | 0.00 | 56 | 1017.0 |
| 20260904185550 | 35 | 360 | 0.0 | 4.8 | 0.00 | 0.00 | 0.00 | 58 | 1017.0 |
| 20260904185050 | 34 | 360 | 1.6 | 3.2 | 0.00 | 0.00 | 0.00 | 59 | 1017.1 |